Tracking 25734 objects as of 29-May-2022
HD Live streaming from Space Station
objects crossing your sky now

METEOR 2-21 DEB

Track METEOR 2-21 DEB now!
10-day predictions


NORAD ID: 40711
Int'l Code: 1993-055D
Perigee: 896.2 km
Apogee: 920.6 km
Inclination: 82.5 °
Period: 103.0 minutes
Semi major axis: 7279 km
RCS: Unknown
Launch date: August 31, 1993
Source: Commonwealth of Independent States (former USSR) (CIS)
Launch site: PLESETSK MISSILE AND SPACE COMPLEX (PKMTR)

Note: This is SATELLITE DEBRIS
aabbcc
Your satellite tracking list
Your tracking list is empty




NASA's NSSDC Master Catalog

Two Line Element Set (TLE):
1 40711U 93055D   22123.37649336  .00002359  00000-0  16551-2 0  9995
2 40711  82.5489 358.7735 0016752 307.5808  52.3838 13.97851842890072
Source of the keplerian elements: AFSPC